Track STARLINK-1746 now! 10-day predictions STARLINK-1746 is classified as:
1 46588U 20070BJ 24325.88020779 .00006911 00000-0 48201-3 0 9992 2 46588 53.0531 123.6308 0001317 92.8856 267.2283 15.06431075228377